Litchfield, MN

8:43 PM CDT on April 25, 2017 (GMT -0500)
Litchfield Municipal

Weather History for KLJF - December, 2011

Change the Weather History Date:

Thursday, December 29, 2011

  Actual Average Record
Temperature  
Mean Temperature 32 °F -  
Max Temperature 37 °F 22 °F 55 °F (1999)
Min Temperature 26 °F 4 °F -16 °F (2013)
Degree Days  
Heating Degree Days 34    
Moisture  
Dew Point 27 °F    
Average Humidity 82    
Maximum Humidity 100    
Minimum Humidity 60    
Precipitation  
Precipitation 0.00 in - - ()
Sea Level Pressure  
Sea Level Pressure 29.56 in    
Wind  
Wind Speed 6 mph (WNW)    
Max Wind Speed 16 mph    
Max Gust Speed 22 mph    
Visibility 10 miles    
Events      
Averages and records for this station are not official NWS values.
T = Trace of Precipitation, MM = Missing Value Source: NWS Daily Summary

Daily Weather History Graph

Daily Weather History Graph

Search for Another Location

Airport or City:

Trip Planner

Search our weather history database for the weather conditions in past years. The results will help you decide how hot, cold, wet, or windy it might be!

Date:

Astronomy

Dec. 29, 2011 Rise Set
Actual Time 7:56 AM CST 4:43 PM CST
Civil Twilight 7:22 AM CST 5:17 PM CST
Nautical Twilight 6:45 AM CST 5:54 PM CST
Astronomical Twilight 6:09 AM CST 6:30 PM CST
Moon 10:35 AM CST (12/29) 10:37 PM CST (12/29)
Length of Visible Light 9h 55m
Length of Day
8h 47m
Waxing Crescent, 27% of the Moon is Illuminated
Dec 29
Waxing Crescent
Jan 1
First Quarter
Jan 9
Full
Jan 16
Last Quarter
Jan 23
New

Hourly Weather History & Observations

Time (CST) Temp. Windchill Dew Point Humidity Pressure Visibility Wind Dir Wind Speed Gust Speed Precip Events Conditions
12:13 AM 35.6 °F 31.7 °F 26.6 °F 70% 29.45 in 10.0 mi SSE 4.6 mph - N/A   Clear
12:33 AM 33.8 °F - 26.6 °F 75% 29.44 in 10.0 mi Calm Calm - N/A   Clear
1:13 AM 33.8 °F - 24.8 °F 70% 29.42 in 10.0 mi Calm Calm - N/A   Clear
1:33 AM 32.0 °F 28.7 °F 24.8 °F 75% 29.41 in 10.0 mi SSW 3.5 mph - N/A   Clear
1:53 AM 33.8 °F 29.6 °F 24.8 °F 70% 29.40 in 10.0 mi WSW 4.6 mph - N/A   Clear
2:13 AM 33.8 °F 27.7 °F 24.8 °F 70% 29.41 in 10.0 mi WSW 6.9 mph - N/A   Clear
2:33 AM 35.6 °F 28.0 °F 26.6 °F 70% 29.41 in 10.0 mi West 10.4 mph - N/A   Clear
2:53 AM 35.6 °F 28.0 °F 26.6 °F 70% 29.42 in 10.0 mi West 10.4 mph - N/A   Clear
3:14 AM 35.6 °F 28.0 °F 26.6 °F 70% 29.42 in 10.0 mi WNW 10.4 mph 16.1 mph N/A   Clear
3:33 AM 33.8 °F 24.3 °F 28.4 °F 81% 29.43 in 10.0 mi WNW 13.8 mph 17.3 mph N/A   Clear
3:53 AM 33.8 °F 24.8 °F 28.4 °F 81% 29.44 in 10.0 mi WNW 12.7 mph 20.7 mph N/A   Mostly Cloudy
4:13 AM 33.8 °F 23.9 °F 28.4 °F 81% 29.44 in 10.0 mi WNW 15.0 mph 19.6 mph N/A   Overcast
4:33 AM 35.6 °F 27.1 °F 30.2 °F 81% 29.46 in 10.0 mi WNW 12.7 mph 20.7 mph N/A   Overcast
5:14 AM 33.8 °F 23.9 °F 30.2 °F 87% 29.48 in 10.0 mi NW 15.0 mph 21.9 mph N/A   Mostly Cloudy
5:33 AM 33.8 °F 23.5 °F 30.2 °F 87% 29.50 in 10.0 mi NW 16.1 mph 21.9 mph N/A   Clear
6:13 AM 32.0 °F 21.6 °F 28.4 °F 87% 29.52 in 10.0 mi NNW 15.0 mph - N/A   Mostly Cloudy
6:53 AM 30.2 °F 19.8 °F 30.2 °F 100% 29.53 in 10.0 mi NNW 13.8 mph - N/A   Mostly Cloudy
7:14 AM 30.2 °F 21.3 °F 30.2 °F 100% 29.55 in 10.0 mi NW 10.4 mph - N/A   Mostly Cloudy
7:33 AM 30.2 °F 21.3 °F 30.2 °F 100% 29.56 in 10.0 mi NW 10.4 mph - N/A   Scattered Clouds
7:53 AM 30.2 °F 21.9 °F 30.2 °F 100% 29.57 in 10.0 mi WNW 9.2 mph - N/A   Mostly Cloudy
8:33 AM 30.2 °F 20.8 °F 30.2 °F 100% 29.59 in 10.0 mi NNW 11.5 mph 19.6 mph N/A   Overcast
8:53 AM 30.2 °F 19.3 °F 30.2 °F 100% 29.60 in 10.0 mi NNW 15.0 mph - N/A   Overcast
9:13 AM 30.2 °F 20.8 °F 30.2 °F 100% 29.61 in 10.0 mi North 11.5 mph - N/A   Overcast
9:33 AM 32.0 °F 24.2 °F 30.2 °F 93% 29.61 in 10.0 mi North 9.2 mph 12.7 mph N/A   Overcast
9:53 AM 32.0 °F 23.6 °F 30.2 °F 93% 29.62 in 10.0 mi North 10.4 mph - N/A   Overcast
10:13 AM 32.0 °F 24.2 °F 30.2 °F 93% 29.62 in 10.0 mi North 9.2 mph - N/A   Overcast
10:33 AM 33.8 °F 28.6 °F 28.4 °F 81% 29.63 in 10.0 mi North 5.8 mph - N/A   Overcast
11:14 AM 33.8 °F 27.7 °F 28.4 °F 81% 29.63 in 10.0 mi North 6.9 mph - N/A   Mostly Cloudy
11:33 AM 33.8 °F 29.6 °F 28.4 °F 81% 29.63 in 10.0 mi NW 4.6 mph - N/A   Mostly Cloudy
11:53 AM 33.8 °F 27.0 °F 28.4 °F 81% 29.63 in 10.0 mi West 8.1 mph - N/A   Mostly Cloudy
12:13 PM 33.8 °F 27.0 °F 26.6 °F 75% 29.62 in 10.0 mi WNW 8.1 mph - N/A   Scattered Clouds
12:33 PM 33.8 °F 28.6 °F 26.6 °F 75% 29.62 in 10.0 mi West 5.8 mph - N/A   Scattered Clouds
12:53 PM 35.6 °F 30.7 °F 26.6 °F 70% 29.61 in 10.0 mi West 5.8 mph - N/A   Clear
1:14 PM 35.6 °F - 26.6 °F 70% 29.59 in 10.0 mi Calm Calm - N/A   Clear
1:33 PM 37.4 °F 34.9 °F 26.6 °F 65% 29.58 in 10.0 mi WNW 3.5 mph - N/A   Clear
1:53 PM 35.6 °F 32.8 °F 26.6 °F 70% 29.58 in 10.0 mi West 3.5 mph - N/A   Clear
2:33 PM 37.4 °F 34.9 °F 24.8 °F 60% 29.58 in 10.0 mi NW 3.5 mph - N/A   Clear
3:13 PM 35.6 °F - 26.6 °F 70% 29.60 in 10.0 mi Calm Calm - N/A   Clear
3:54 PM 35.6 °F - 26.6 °F 70% 29.60 in 10.0 mi Calm Calm - N/A   Clear
4:13 PM 33.8 °F - 24.8 °F 70% 29.60 in 10.0 mi Calm Calm - N/A   Clear
4:34 PM 32.0 °F 28.7 °F 24.8 °F 75% 29.60 in 10.0 mi WSW 3.5 mph - N/A   Clear
4:53 PM 33.8 °F - 26.6 °F 75% 29.61 in 10.0 mi Calm Calm - N/A   Clear
5:13 PM 33.8 °F 30.8 °F 26.6 °F 75% 29.62 in 10.0 mi SSE 3.5 mph - N/A   Clear
5:53 PM 30.2 °F 26.7 °F 24.8 °F 80% 29.61 in 10.0 mi SE 3.5 mph - N/A   Clear
6:13 PM 32.0 °F - 24.8 °F 75% 29.61 in 10.0 mi Calm Calm - N/A   Clear
6:33 PM 32.0 °F - 24.8 °F 75% 29.63 in 10.0 mi Calm Calm - N/A   Clear
6:53 PM 30.2 °F - 24.8 °F 80% 29.63 in 10.0 mi Calm Calm - N/A   Clear
7:13 PM 30.2 °F - 24.8 °F 80% 29.64 in 10.0 mi Calm Calm - N/A   Scattered Clouds
7:33 PM 30.2 °F - 24.8 °F 80% 29.63 in 10.0 mi Calm Calm - N/A   Overcast
7:53 PM 28.4 °F - 26.6 °F 93% 29.63 in 10.0 mi Calm Calm - N/A   Overcast
8:13 PM 28.4 °F 23.3 °F 24.8 °F 86% 29.62 in 10.0 mi ESE 4.6 mph - N/A   Scattered Clouds
8:53 PM 28.4 °F 22.2 °F 26.6 °F 93% 29.61 in 10.0 mi ESE 5.8 mph - N/A   Mostly Cloudy
9:13 PM 28.4 °F 22.2 °F 26.6 °F 93% 29.61 in 10.0 mi ESE 5.8 mph - N/A   Mostly Cloudy
9:33 PM 28.4 °F 22.2 °F 26.6 °F 93% 29.60 in 10.0 mi ESE 5.8 mph - N/A   Mostly Cloudy
9:53 PM 28.4 °F 22.2 °F 26.6 °F 93% 29.61 in 10.0 mi ESE 5.8 mph - N/A   Mostly Cloudy
10:13 PM 26.6 °F 21.2 °F 26.6 °F 100% 29.61 in 10.0 mi ESE 4.6 mph - N/A   Scattered Clouds
10:33 PM 28.4 °F 23.3 °F 26.6 °F 93% 29.61 in 10.0 mi ESE 4.6 mph - N/A   Scattered Clouds
10:53 PM 28.4 °F 22.2 °F 26.6 °F 93% 29.60 in 10.0 mi East 5.8 mph - N/A   Mostly Cloudy
11:13 PM 28.4 °F 21.2 °F 26.6 °F 93% 29.60 in 10.0 mi ESE 6.9 mph - N/A   Mostly Cloudy
11:33 PM 30.2 °F 25.4 °F 28.4 °F 93% 29.59 in 10.0 mi SE 4.6 mph - N/A   Mostly Cloudy
11:53 PM 30.2 °F 22.6 °F 28.4 °F 93% 29.59 in 10.0 mi SE 8.1 mph - N/A   Overcast